Weather History for Henderson, TX

Change the Weather History Date:

Sunday, October 30, 2011

  Actual Average (KGGG) Record (KGGG)
Temperature  
Mean Temperature 50 °F 62 °F  
Max Temperature 68 °F 74 °F 91 °F (1934)
Min Temperature 33 °F 50 °F 29 °F (1910)
Degree Days  
Heating Degree Days 14 5  
Month to date heating degree days 78  
Since 1 July heating degree days 84  
Cooling Degree Days 0 2  
Month to date cooling degree days 113  
Year to date cooling degree days 2392  
Moisture  
Dew Point 35 °F    
Average Humidity 65    
Maximum Humidity 93    
Minimum Humidity 26    
Precipitation  
Precipitation 0.00 in 0.12 in 2.83 in (1991)
Month to date precipitation 4.46  
Year to date precipitation 38.45  
Snow  
Snow 0.00 in - - ()
Month to date snowfall  
Since 1 July snowfall  
Since 1 September snowfall  
Snow Depth -    
Sea Level Pressure  
Sea Level Pressure 30.17 in    
Wind  
Wind Speed 1 mph (South)    
Max Wind Speed 9 mph    
Max Gust Speed -    
Visibility 10 miles    
Events      
T = Trace of Precipitation, MM = Missing Value Source: NWS Daily Summary

Daily Weather History Graph

Daily Weather History Graph

Search for Another Location

Airport:

Trip Planner

Search our weather history database for the weather conditions in past years. The results will help you decide how hot, cold, wet, or windy it might be!

Date:

Astronomy

Oct. 30, 2011 Rise Set
Actual Time 7:34 AM CDT 6:31 PM CDT
Civil Twilight 7:09 AM CDT 6:56 PM CDT
Nautical Twilight 6:40 AM CDT 7:25 PM CDT
Astronomical Twilight 6:11 AM CDT 7:53 PM CDT
Moon 11:44 AM CDT (10/30) 10:10 PM CDT (10/30)
Length of Visible Light 11h 47m
Length of Day
10h 56m
Waxing Crescent, 20% of the Moon is Illuminated
Oct 30
Waxing Crescent
Nov 2
First Quarter
Nov 10
Full
Nov 18
Last Quarter
Nov 25
New

Hourly Weather History & Observations

Time (CDT) Temp. Dew Point Humidity Pressure Visibility Wind Dir Wind Speed Gust Speed Precip Events Conditions
12:15 AM 41.0 °F 37.4 °F 87% 30.15 in 10.0 mi Calm Calm - N/A   Clear
12:35 AM 41.0 °F 35.6 °F 81% 30.15 in 10.0 mi Calm Calm - N/A   Clear
12:55 AM 41.0 °F 37.4 °F 87% 30.15 in 10.0 mi Calm Calm - N/A   Clear
1:15 AM 39.2 °F 37.4 °F 93% 30.16 in 10.0 mi Calm Calm - N/A   Clear
1:35 AM 39.2 °F 37.4 °F 93% 30.16 in 10.0 mi Calm Calm - N/A   Clear
1:55 AM 37.4 °F 35.6 °F 93% 30.16 in 10.0 mi Calm Calm - N/A   Clear
2:15 AM 37.4 °F 35.6 °F 93% 30.16 in 10.0 mi Calm Calm - N/A   Clear
2:35 AM 37.4 °F 35.6 °F 93% 30.16 in 10.0 mi Calm Calm - N/A   Clear
2:55 AM 37.4 °F 35.6 °F 93% 30.15 in 10.0 mi Calm Calm - N/A   Clear
3:15 AM 37.4 °F 35.6 °F 93% 30.15 in 10.0 mi Calm Calm - N/A   Clear
3:35 AM 37.4 °F 35.6 °F 93% 30.15 in 10.0 mi Calm Calm - N/A   Clear
3:55 AM 37.4 °F 35.6 °F 93% 30.15 in 10.0 mi Calm Calm - N/A   Clear
4:15 AM 35.6 °F 33.8 °F 93% 30.14 in 10.0 mi Calm Calm - N/A   Clear
4:35 AM 35.6 °F 33.8 °F 93% 30.14 in 10.0 mi Calm Calm - N/A   Clear
4:55 AM 35.6 °F 33.8 °F 93% 30.15 in 10.0 mi Calm Calm - N/A   Clear
5:15 AM 35.6 °F 33.8 °F 93% 30.15 in 10.0 mi Calm Calm - N/A   Clear
5:35 AM 35.6 °F 33.8 °F 93% 30.15 in 10.0 mi Calm Calm - N/A   Clear
5:55 AM 35.6 °F 33.8 °F 93% 30.15 in 10.0 mi Calm Calm - N/A   Clear
6:15 AM 35.6 °F 32.0 °F 87% 30.16 in 10.0 mi Calm Calm - N/A   Clear
6:35 AM 35.6 °F 33.8 °F 93% 30.16 in 10.0 mi Calm Calm - N/A   Clear
6:55 AM 35.6 °F 33.8 °F 93% 30.17 in 10.0 mi Calm Calm - N/A   Clear
7:15 AM 35.6 °F 32.0 °F 87% 30.18 in 10.0 mi Calm Calm - N/A   Clear
7:35 AM 33.8 °F 32.0 °F 93% 30.18 in 10.0 mi Calm Calm - N/A   Clear
8:15 AM 35.6 °F 33.8 °F 93% 30.19 in 10.0 mi Calm Calm - N/A   Clear
8:35 AM 41.0 °F 35.6 °F 81% 30.20 in 10.0 mi Calm Calm - N/A   Clear
9:15 AM 46.4 °F 37.4 °F 71% 30.22 in 10.0 mi Calm Calm - N/A   Clear
9:35 AM 50.0 °F 37.4 °F 62% 30.23 in 10.0 mi Calm Calm - N/A   Clear
9:55 AM 51.8 °F 37.4 °F 58% 30.24 in 10.0 mi Calm Calm - N/A   Clear
10:15 AM 53.6 °F 37.4 °F 54% 30.24 in 10.0 mi SE 3.5 mph - N/A   Clear
10:35 AM 57.2 °F 37.4 °F 48% 30.24 in 10.0 mi SSE 5.8 mph - N/A   Clear
10:55 AM 59.0 °F 35.6 °F 42% 30.24 in 10.0 mi South 6.9 mph - N/A   Clear
11:15 AM 60.8 °F 33.8 °F 36% 30.23 in 10.0 mi North - - N/A   Clear
11:35 AM 60.8 °F 32.0 °F 34% 30.23 in 10.0 mi South 4.6 mph - N/A   Clear
11:55 AM 62.6 °F 32.0 °F 32% 30.23 in 10.0 mi SSW 6.9 mph - N/A   Clear
12:35 PM 64.4 °F 32.0 °F 30% 30.21 in 10.0 mi South 4.6 mph - N/A   Clear
12:55 PM 64.4 °F 32.0 °F 30% 30.20 in 10.0 mi South 4.6 mph - N/A   Clear
1:15 PM 64.4 °F 32.0 °F 30% 30.19 in 10.0 mi SW 4.6 mph - N/A   Clear
1:35 PM 64.4 °F 32.0 °F 30% 30.18 in 10.0 mi WSW 9.2 mph - N/A   Clear
1:55 PM 66.2 °F 32.0 °F 28% 30.16 in 10.0 mi West 4.6 mph - N/A   Clear
2:15 PM 66.2 °F 32.0 °F 28% 30.15 in 10.0 mi SE 6.9 mph - N/A   Clear
2:35 PM 64.4 °F 32.0 °F 30% 30.15 in 10.0 mi Calm Calm - N/A   Clear
2:55 PM 66.2 °F 32.0 °F 28% 30.14 in 10.0 mi Calm Calm - N/A   Clear
3:35 PM 66.2 °F 32.0 °F 28% 30.13 in 10.0 mi Calm Calm - N/A   Clear
4:15 PM 68.0 °F 32.0 °F 26% 30.13 in 10.0 mi Calm Calm - N/A   Clear
4:35 PM 68.0 °F 32.0 °F 26% 30.13 in 10.0 mi North - - N/A   Clear
4:55 PM 68.0 °F 32.0 °F 26% 30.13 in 10.0 mi Calm Calm - N/A   Clear
5:15 PM 68.0 °F 32.0 °F 26% 30.13 in 10.0 mi Calm Calm - N/A   Clear
5:35 PM 66.2 °F 32.0 °F 28% 30.13 in 10.0 mi Calm Calm - N/A   Clear
6:15 PM 60.8 °F 37.4 °F 42% 30.13 in 10.0 mi Calm Calm - N/A   Clear
6:35 PM 59.0 °F 33.8 °F 39% 30.13 in 10.0 mi Calm Calm - N/A   Clear
6:55 PM 55.4 °F 41.0 °F 58% 30.14 in 10.0 mi Calm Calm - N/A   Clear
7:35 PM 51.8 °F 41.0 °F 67% 30.16 in 10.0 mi Calm Calm - N/A   Clear
7:55 PM 50.0 °F 41.0 °F 71% 30.17 in 10.0 mi Calm Calm - N/A   Clear
8:15 PM 50.0 °F 41.0 °F 71% 30.17 in 10.0 mi North - - N/A   Clear
8:35 PM 50.0 °F 41.0 °F 71% 30.18 in 10.0 mi North - - N/A   Clear
8:55 PM 48.2 °F 41.0 °F 76% 30.19 in 10.0 mi North - - N/A   Clear
9:15 PM 46.4 °F 41.0 °F 81% 30.19 in 10.0 mi North - - N/A   Clear
9:35 PM 46.4 °F 41.0 °F 81% 30.19 in 10.0 mi North - - N/A   Clear
9:55 PM 44.6 °F 41.0 °F 87% 30.19 in 10.0 mi North - - N/A   Clear
10:15 PM 44.6 °F 41.0 °F 87% 30.20 in 10.0 mi North - - N/A   Clear
10:35 PM 44.6 °F 39.2 °F 81% 30.20 in 10.0 mi North - - N/A   Clear
10:55 PM 44.6 °F 41.0 °F 87% 30.20 in 10.0 mi North - - N/A   Clear
11:15 PM 44.6 °F 41.0 °F 87% 30.20 in 10.0 mi North - - N/A   Clear
11:35 PM 44.6 °F 41.0 °F 87% 30.21 in 10.0 mi Calm Calm - N/A   Clear
11:55 PM 42.8 °F 39.2 °F 87% 30.21 in 10.0 mi Calm Calm - N/A   Clear